Location: Newark
(48.1500°N, 2.9667°W)
Time: 09:15:04
(UTC+00:00)

Courier 1B - Pass Details

Date: 27 January 2020
Orbit: 962 x 1209 km, 28.3° (Epoch: 25 February)

Event Time Altitude Azimuth Distance (km) Brightness Sun altitude
Exits shadow 03:37:35 11° 145° (SE) 2,970 10.1 -41.2°
Drops below altitude 10° 03:38:01 10° 142° (SE) 3,044 10.2 -41.1°
Sets 03:42:20 0° 121° (ESE) 4,050 11.2 -40.4°
